Location: Antioch Baptist Church
(32.6696°N, 85.7327°W)
Time: 11:11:46
(UTC+00:00)

Cosmos 2237 Rocket - Pass Details

Date: 14 July 2020
Orbit: 834 x 850 km, 71.0° (Epoch: 09 August)

Event Time Altitude Azimuth Distance (km) Brightness Sun altitude
Rises 02:55:59 0° 219° (SW) 3,395 5.3 -21.8°
Reaches altitude 10° 02:58:35 10° 227° (SW) 2,465 4.6 -22.2°
Maximum altitude 03:03:50 39° 295° (WNW) 1,259 3.5 -22.9°
Drops below altitude 10° 03:09:08 10° 4° (N) 2,480 5.2 -23.7°
Sets 03:11:46 0° 12° (NNE) 3,418 5.9 -24.0°
